Regional Weather Roundup
Issued by NWS Mobile, AL

Home | Current Version | Previous Version | Text Only | Print | Product List | Glossary On
Versions: 1 2 3 4 5 6 7 8 9 10 11 12 13 14 15 16 17 18 19 20 21 22 23 24 25 26 27 28 29 30 31 32 33 34 35 36 37 38 39 40 41 42 43 44 45 46 47 48
000
ASUS44 KMOB 260610
RWRMOB
REGIONAL WEATHER ROUNDUP
NATIONAL WEATHER SERVICE MOBILE AL
1200 AM CST FRI DEC 26 2014

NOTE: "FAIR" INDICATES FEW OR NO CLOUDS BELOW 12,000 FEET WITH NO
      SIGNIFICANT WEATHER AND/OR OBSTRUCTIONS TO VISIBILITY.

  * THESE STATIONS ARE PART OF THE UNIVERSITY OF SOUTH ALABAMA
    MESONET AND ARE NOT UNDER NWS OR FAA QUALITY CONTROL.

ALZ061>064-260700-
COASTAL ALABAMA

CITY           SKY/WX    TMP DP  RH WIND       PRES   REMARKS
MOBILE REG APT MOCLDY    41  39  93 E3        30.21F
6HR MIN TEMP:  38; 6HR MAX TEMP:  46;

BROOKLEY FIELD MOCLDY    40  40 100 CALM      30.23F
6HR MIN TEMP:  38; 6HR MAX TEMP:  48;

USA CAMPUS*      N/A     39  39 100 CALM      30.22F
DOG RIVER*     NOT AVBL


CITY           SKY/WX    TMP DP  RH WIND       PRES   REMARKS
MOUNT VERNON*    N/A    N/A N/A N/A CALM      30.23F
SARALAND*      NOT AVBL
BAY MINETTE*   NOT AVBL
LOXLEY*          N/A     36  36 100 CALM      30.22F
ROBERTSDALE*     N/A     37  37 100 CALM      30.22F
FAIRHOPE*        N/A     36  36 100 E2        30.21F
ELBERTA*         N/A     39  39 100 CALM      30.21F
FOLEY*           N/A     36  36 100 CALM      30.20F
GRAND BAY*       N/A     37  37 100 CALM      30.20F
DAUPHIN ISLND* NOT AVBL
BON SCOUR NWR* NOT AVBL
GULF SHORES    PTCLDY    36  36  99 CALM      30.22F

$$

ALZ051>060-260700-
INTERIOR SOUTHWEST AND SOUTH CENTRAL ALABAMA

CITY           SKY/WX    TMP DP  RH WIND       PRES   REMARKS
GREENVILLE     PTCLDY    34  30  85 CALM      30.22F
6HR MIN TEMP:  33; 6HR MAX TEMP:  44;

EVERGREEN      PTCLDY    35  33  92 CALM      30.23F
6HR MIN TEMP:  35; 6HR MAX TEMP:  45;

CASTLEBERRY*   NOT AVBL
ATMORE*          N/A     39  39 100 CALM      30.25F
DIXIE*           N/A     39  37  93 CALM      30.21F
ANDALUSIA/OPP  CLEAR     39  34  82 CALM      30.24F
6HR MIN TEMP:  39; 6HR MAX TEMP:  48;

ANDALUSIA*       N/A     36  36 100 E3        30.23F
FLORALA APT    CLEAR     37  34  89 CALM      30.25F
6HR MIN TEMP:  37; 6HR MAX TEMP:  44;

FLORALA*         N/A     36  36 100 CALM      30.20F

$$

FLZ001>006-260700-
WESTERN FLORIDA PANHANDLE

CITY           SKY/WX    TMP DP  RH WIND       PRES   REMARKS
PENSACOLA      PTCLDY    42  40  92 NE3       30.23F
6HR MIN TEMP:  40; 6HR MAX TEMP:  49;

NAS PENSACOLA  NOT AVBL
MILTON         PTCLDY    37  35  92 CALM      30.23F
6HR MIN TEMP:  35; 6HR MAX TEMP:  45; 6HR PCP: TRACE;

WHTNG S FIELD  PTCLDY    40  36  86 CALM      30.24F
6HR MIN TEMP:  36; 6HR MAX TEMP:  49;



CITY           SKY/WX    TMP DP  RH WIND       PRES   REMARKS
WALNUT HILL*   NOT AVBL
JAY*           NOT AVBL
DUKE FIELD     PTCLDY    35  33  94 CALM      30.24S
CRESTVIEW      FAIR      34  33  96 CALM      30.26S
6HR MIN TEMP:  34; 6HR MAX TEMP:  44;

VALPARAISO     CLEAR     38  36  92 N5        30.23F
6HR MIN TEMP:  38; 6HR MAX TEMP:  49;

DESTIN         CLEAR     45  43  93 CALM      30.23F
6HR MIN TEMP:  44; 6HR MAX TEMP:  49;


$$

MSZ076-079-260700-
INTERIOR SOUTHEAST MISSISSIPPI

CITY           SKY/WX    TMP DP  RH WIND       PRES   REMARKS
LEAKESVILLE*   NOT AVBL
AGRICOLA*      NOT AVBL

$$

MARINE OBSERVATIONS

STATION/POSITION TIME  TEMP    WIND        PRES    WAVE
                       AIR SEA DIR/SP/G            HT/PER
                 (UTC) (F)     (DEG/KT/KT) (MB)    (FT/S)
PASCAGOULA       0600   49     100/  4/  5 1022.7R
PETIT BOIS ISLND 0600   54     110/  7/  8 1023.2F
GRAND BAY        0500   51     120/  7     1024.0S
KATRINA CUT      0500   54      90/  9     1023.7F
CEDAR POINT      0500   53     100/  7     1023.0F
E DAUPHIN ISLAND 0500   54      80/  8/ 10 1023.3F
MIDDLE BAY LIGHT 0500   53      90/  8     1023.0S
USCG MOBILE BAY  0600   47 60   10/  2/  3 1022.2F
STATE DOCKS      0600   46 56              1023.0F
MEAHER PARK      0500   46      90/  2     1024.0F
WEEKS BAY        0500   38                   N/A
FORT MORGAN      0600   52     100/  8/ 11 1022.8R
12 S ORANGE BCH  0600   59 67  110/ 10/ 14 1022.8F   1/ 8
PENSACOLA BAY    0600   48 61  360/  4/  4 1024.0F
64 S DAUPHIN ISL 0600   60 74  110/ 16/ 17 1022.1F   2/ 7

$$

SELECTED LOCATIONS ACROSS THE REGION

CITY           SKY/WX    TMP DP  RH WIND       PRES   REMARKS
NEW ORLEANS    MOCLDY    47  41  80 SE5       30.18F
GULFPORT       MOCLDY    44  41  89 E7        30.18F
PASCAGOULA AP  PTCLDY    37  36  96 CALM      30.22F
PASCAGOULA*      N/A     43  41  93 CALM      30.21F
HATTIESBURG    MOCLDY    40  37  89 E3        30.19F
LAUREL         PTCLDY    41  36  81 S7        30.18F
MERIDIAN       PTCLDY    33  31  92 CALM      30.19S
JACKSON        PTCLDY    39  36  89 CALM      30.18R
MONTGOMERY     PTCLDY    35  32  88 CALM      30.25F
TROY           PTCLDY    33  30  88 CALM      30.25F
KINSTON*       NOT AVBL
GENEVA*          N/A     36  36 100 CALM      30.27F
ASHFORD*         N/A     36  36 100 E3        30.23F
DOTHAN         FAIR      40  38  93 CALM      30.28S
PANAMA CITY    PTCLDY    41  37  86 CALM        N/A

$$



USA.gov is the U.S. government's official web portal to all federal, state and local government web resources and services.